Hourly Data Report for March 07, 2003

SHERBROOKE A
QUEBEC

45°26'00.000" N
71°41'00.000" W
241.40 m
7028124
71610
YSC

Download Data

Hourly Data (March 2003)
Hourly Data Report for March 7, 2003
TIME
LST
Temp Definition
°C
Dew Point Definition
°C
Rel Hum Definition
%
Precip. Amount Definition
mm

Wind Dir Definition
10's deg

Wind Spd Definition
km/h
Visibility Definition
km
Stn Press Definition
kPa
Hmdx Definition


Wind Chill Definition


Weather Definition


00:00 -25.4 -30.7 61   8 6 15.0 99.22   -31  
01:00 -26.5 -31.6 62   10 6 15.0 99.28   -32  
02:00 -27.6 -33.2 59     0 15.0 99.32      
03:00 -29.4 -35.1 58   9 6 15.0 99.33   -36  
04:00 -30.6 -35.9 60   7 6 15.0 99.44   -37  
05:00 -30.3 -36.1 57   8 4 15.0 99.52   -35  
06:00 -29.5 -34.9 59   8 4 15.0 99.59   -34  
07:00 -28.6 -34.1 59     0 15.0 99.60      
08:00 -22.7 -27.6 64     0 24.1 99.58     Clear
09:00 -17.8 -25.7 50     0 24.1 99.63     Clear
10:00 -12.5 -22.2 44   21 7 24.1 99.56   -17 Clear
11:00 -9.7 -21.4 38   22 9 24.1 99.46   -15 Clear
12:00 -8.4 -20.4 37   21 15 24.1 99.38   -15 Mainly Clear
13:00 -6.8 -18.8 38   22 15 24.1 99.20   -13 Mainly Clear
14:00 -5.0 -18.7 33   22 6 24.1 99.08   -8 Mainly Clear
15:00 -4.0 -18.7 31   20 7 24.1 98.93   -7 Mostly Cloudy
16:00 -4.6 -17.7 35   27 9 24.1 98.90   -8 Cloudy
17:00 -4.3 -17.1 36   19 4 24.1 98.82   -6 Cloudy
18:00 -4.5 -15.2 43   17 6 15.0 98.74   -7  
19:00 -4.0 -15.2 41   17 6 15.0 98.66   -7  
20:00 -3.6 -15.6 39   19 11 15.0 98.61   -8  
21:00 -3.3 -15.3 39   19 11 15.0 98.50   -8  
22:00 -3.4 -14.9 41   19 7 15.0 98.51   -6  
23:00 -3.5 -12.4 50   24 17 15.0 98.59   -9 Snow

Notes on Data Quality.

Legend

  • E = Estimated
  • M = Missing
  • NA = Not Available*
  • [empty] = Indicates an unobserved value
Date modified: